GW1897 Weather Reports


Display with metric or nautical units.
time (UTC)temp
F
wind
direction
speed
MPH
gust
MPH
rain 1hr
in
rain 24hr
in
rain mn
in
humidity
%
barometer
mb
20260504204235 74 180 3.0 9.0 0.00 0.00 0.00 33 1009.4
20260504203730 74 139 3.0 14.0 0.00 0.00 0.00 34 1009.5
20260504203224 74 227 3.0 14.0 0.00 0.00 0.00 32 1009.4
20260504202719 74 193 4.0 16.0 0.00 0.00 0.00 34 1009.5
20260504202445 74 196 4.0 22.0 0.00 0.00 0.00 31 1009.6
20260504201705 74 215 5.0 22.0 0.00 0.00 0.00 31 1009.4
20260504201201 74 158 3.0 16.0 0.00 0.00 0.00 31 1009.5
20260504200924 74 200 2.0 9.0 0.00 0.00 0.00 33 1009.5
20260504200147 74 179 3.0 13.0 0.00 0.00 0.00 34 1009.5
20260504195640 74 150 4.0 13.0 0.00 0.00 0.00 32 1009.6
20260504195142 74 203 3.0 13.0 0.00 0.00 0.00 32 1009.5
20260504194641 74 188 2.0 9.0 0.00 0.00 0.00 31 1009.5
20260504194138 74 198 3.0 12.0 0.00 0.00 0.00 32 1009.5
20260504193640 74 159 3.0 12.0 0.00 0.00 0.00 32 1009.6
20260504193137 73 124 3.0 11.0 0.00 0.00 0.00 36 1009.7
20260504192908 73 181 4.0 11.0 0.00 0.00 0.00 31 1009.6
20260504192137 73 205 3.0 10.0 0.00 0.00 0.00 32 1009.7
20260504191637 73 246 4.0 12.0 0.00 0.00 0.00 35 1009.7
20260504191137 73 180 5.0 15.0 0.00 0.00 0.00 32 1009.8
20260504190637 73 256 5.0 15.0 0.00 0.00 0.00 31 1009.7
20260504190138 73 226 3.0 15.0 0.00 0.00 0.00 33 1009.9
20260504185633 73 182 3.0 7.0 0.00 0.00 0.00 32 1009.9
20260504185133 73 164 3.0 11.0 0.00 0.00 0.00 32 1010.0
20260504184905 73 194 3.0 11.0 0.00 0.00 0.00 33 1010.1
20260504184750 73 146 4.0 12.0 0.00 0.00 0.00 30 1010.3
20260504183634 73 165 4.0 12.0 0.00 0.00 0.00 34 1010.5
20260504183133 73 216 4.0 13.0 0.00 0.00 0.00 34 1010.6
20260504182632 73 211 4.0 13.0 0.00 0.00 0.00 33 1010.5
20260504182404 73 258 4.0 10.0 0.00 0.00 0.00 35 1010.7
20260504181634 73 228 4.0 11.0 0.00 0.00 0.00 34 1010.9
20260504181406 73 184 4.0 11.0 0.00 0.00 0.00 32 1010.9
20260504180633 73 213 4.0 11.0 0.00 0.00 0.00 33 1010.9
20260504180133 73 193 4.0 12.0 0.00 0.00 0.00 32 1010.9
20260504175632 73 157 4.0 12.0 0.00 0.00 0.00 34 1011.1
20260504175134 73 223 4.0 13.0 0.00 0.00 0.00 35 1011.3
20260504174632 73 225 4.0 13.0 0.00 0.00 0.00 33 1011.4
20260504174132 72 179 4.0 13.0 0.00 0.00 0.00 34 1011.3
20260504173632 72 231 4.0 13.0 0.00 0.00 0.00 32 1011.4
20260504173133 72 157 3.0 17.0 0.00 0.00 0.00 38 1011.3
20260504172633 72 162 3.0 17.0 0.00 0.00 0.00 32 1011.5
20260504172628 72 183 3.0 11.0 0.00 0.00 0.00 37 1011.5
20260504171627 72 249 4.0 13.0 0.00 0.00 0.00 34 1011.6
20260504171127 72 184 3.0 13.0 0.00 0.00 0.00 35 1011.7
20260504170628 72 138 3.0 7.0 0.00 0.00 0.00 37 1011.8
20260504170124 71 171 4.0 15.0 0.00 0.00 0.00 33 1011.8
20260504160120 70 178 3.0 10.0 0.00 0.00 0.00 38 1012.6
20260504151021 65 163 4.0 16.0 0.00 0.00 0.00 45 1013.1
20260504150516 64 202 3.0 16.0 0.00 0.00 0.00 45 1012.9
20260504140925 59 235 3.0 11.0 0.00 0.00 0.00 56 1013.2
20260504140423 58 177 4.0 13.0 0.00 0.00 0.00 56 1013.3
20260504130653 54 224 3.0 14.0 0.00 0.00 0.00 66 1013.7
20260504120109 45 206 0.0 5.0 0.00 0.00 0.00 89 1014.0
20260504110331 39 230 0.0 1.0 0.00 0.00 0.00 84 1014.3
20260504100332 39 230 0.0 0.0 0.00 0.00 0.00 78 1014.1
20260504081647 40 230 0.0 0.0 0.00 0.00 0.00 74 1014.1
20260504081412 40 230 0.0 0.0 0.00 0.00 0.00 74 1014.0
20260504080906 40 230 0.0 0.0 0.00 0.00 0.00 73 1014.0
20260504080129 41 230 0.0 0.0 0.00 0.00 0.00 73 1014.1
20260504050300 44 230 0.0 0.0 0.00 0.00 0.00 66 1013.7
20260504050025 44 230 0.0 0.0 0.00 0.00 0.00 66 1013.7
20260504045248 44 230 0.0 0.0 0.00 0.00 0.00 66 1013.7
20260504044742 45 230 0.0 0.0 0.00 0.00 0.00 65 1013.7
20260504044235 45 230 0.0 0.0 0.00 0.00 0.00 64 1013.6
20260504043730 45 230 0.0 1.0 0.00 0.00 0.00 63 1013.6
20260504043223 45 230 0.0 1.0 0.00 0.00 0.00 63 1013.4
20260504042724 45 230 0.0 0.0 0.00 0.00 0.00 62 1013.5
20260504042221 46 230 0.0 0.0 0.00 0.00 0.00 62 1013.4
20260504041725 46 230 0.0 2.0 0.00 0.00 0.00 61 1013.3
20260504041721 46 230 0.0 2.0 0.00 0.00 0.00 62 1013.4
20260504040716 46 202 0.0 1.0 0.00 0.00 0.00 60 1013.2
20260504040214 46 202 0.0 1.0 0.00 0.00 0.00 60 1013.2
20260504035713 47 202 0.0 0.0 0.00 0.00 0.00 59 1013.2
20260504035210 47 202 0.0 0.0 0.00 0.00 0.00 59 1013.2
20260504034939 47 202 0.0 0.0 0.00 0.00 0.00 57 1013.3
20260504034209 47 202 0.0 2.0 0.00 0.00 0.00 61 1013.2
20260504033939 47 202 0.0 2.0 0.00 0.00 0.00 57 1013.2
20260504033208 48 208 0.0 1.0 0.00 0.00 0.00 56 1013.1
20260504032708 48 213 0.0 2.0 0.00 0.00 0.00 56 1013.1
20260504032209 48 216 1.0 2.0 0.00 0.00 0.00 52 1013.2
20260504031934 48 209 1.0 4.0 0.00 0.00 0.00 51 1013.1
20260504031203 48 211 1.0 4.0 0.00 0.00 0.00 51 1013.0
20260504030704 48 223 1.0 3.0 0.00 0.00 0.00 51 1013.0
20260504030204 49 197 0.0 2.0 0.00 0.00 0.00 52 1013.0
20260504025705 49 229 0.0 2.0 0.00 0.00 0.00 51 1013.0
20260504025204 49 233 1.0 3.0 0.00 0.00 0.00 50 1013.0
20260504024705 49 219 0.0 3.0 0.00 0.00 0.00 49 1013.0
20260504024205 49 258 0.0 2.0 0.00 0.00 0.00 48 1013.1
20260504023705 49 213 1.0 3.0 0.00 0.00 0.00 48 1013.1
20260504023203 49 205 0.0 3.0 0.00 0.00 0.00 47 1013.0
20260504022935 49 213 0.0 1.0 0.00 0.00 0.00 47 1013.0
20260504022204 50 213 0.0 1.0 0.00 0.00 0.00 47 1013.1
20260504021705 50 188 0.0 1.0 0.00 0.00 0.00 47 1012.9
20260504021201 50 226 0.0 3.0 0.00 0.00 0.00 47 1013.0
20260504020931 50 226 0.0 5.0 0.00 0.00 0.00 46 1012.9
20260504020159 50 204 0.0 5.0 0.00 0.00 0.00 46 1013.0
20260504015659 50 208 0.0 2.0 0.00 0.00 0.00 46 1013.0
20260504015159 50 209 1.0 5.0 0.00 0.00 0.00 46 1013.0
20260504014656 51 189 1.0 5.0 0.00 0.00 0.00 47 1013.0
20260504014154 51 201 1.0 5.0 0.00 0.00 0.00 45 1013.0
20260504013654 51 195 1.0 5.0 0.00 0.00 0.00 45 1012.9
20260504013154 51 193 1.0 4.0 0.00 0.00 0.00 45 1012.9
20260504012647 51 191 1.0 5.0 0.00 0.00 0.00 45 1012.8
20260504012142 51 193 1.0 5.0 0.00 0.00 0.00 45 1012.8
20260504011636 51 221 1.0 5.0 0.00 0.00 0.00 45 1012.7
20260504011129 51 194 1.0 4.0 0.00 0.00 0.00 44 1012.6
20260504010624 52 194 1.0 6.0 0.00 0.00 0.00 43 1012.5
20260504010118 52 208 1.0 6.0 0.00 0.00 0.00 43 1012.4
20260504005612 52 225 0.0 4.0 0.00 0.00 0.00 43 1012.4
20260504005105 52 198 0.0 3.0 0.00 0.00 0.00 42 1012.3
20260504004601 53 200 0.0 3.0 0.00 0.00 0.00 42 1012.3
20260504004054 53 202 1.0 3.0 0.00 0.00 0.00 42 1012.2
20260504003547 53 201 1.0 3.0 0.00 0.00 0.00 41 1012.2
20260504003040 53 199 0.0 3.0 0.00 0.00 0.00 40 1012.2
20260504002806 54 192 1.0 4.0 0.00 0.00 0.00 40 1012.1
20260504002029 54 212 1.0 4.0 0.00 0.00 0.00 39 1012.0
20260504001521 54 210 1.0 4.0 0.00 0.00 0.00 39 1012.0
20260504001015 54 198 1.0 7.0 0.00 0.00 0.00 39 1011.9
20260504000510 55 206 2.0 6.0 0.00 0.00 0.00 39 1011.8
20260504000004 55 179 3.0 8.0 0.00 0.00 0.00 37 1011.7
20260503235729 55 173 2.0 8.0 0.00 0.00 0.00 37 1011.7
20260503234953 56 172 2.0 6.0 0.00 0.00 0.00 36 1011.8
20260503234717 56 208 2.0 5.0 0.00 0.00 0.00 37 1011.6
20260503233940 56 217 2.0 6.0 0.00 0.00 0.00 36 1011.6
20260503233434 56 181 2.0 6.0 0.00 0.00 0.00 35 1011.5
20260503232929 57 218 3.0 7.0 0.00 0.00 0.00 35 1011.4
20260503232422 57 221 3.0 8.0 0.00 0.00 0.00 35 1011.5
20260503231917 57 242 4.0 8.0 0.00 0.00 0.00 33 1011.4
20260503231640 57 184 4.0 15.0 0.00 0.00 0.00 35 1011.5
20260503230904 58 222 4.0 15.0 0.00 0.00 0.00 35 1011.3
20260503230358 58 179 4.0 14.0 0.00 0.00 0.00 33 1011.3
20260503225852 58 231 4.0 14.0 0.00 0.00 0.00 32 1011.2
20260503225345 59 208 3.0 11.0 0.00 0.00 0.00 32 1011.2
20260503224839 59 300 3.0 9.0 0.00 0.00 0.00 32 1011.2
20260503224606 59 254 3.0 10.0 0.00 0.00 0.00 32 1011.2
20260503224059 59 260 3.0 10.0 0.00 0.00 0.00 32 1011.1
20260503223553 59 339 4.0 12.0 0.00 0.00 0.00 32 1011.0
20260503222816 59 233 3.0 12.0 0.00 0.00 0.00 31 1011.0
20260503222310 59 235 3.0 10.0 0.00 0.00 0.00 31 1011.0
20260503221803 59 217 3.0 10.0 0.00 0.00 0.00 29 1011.0
20260503221257 59 173 4.0 12.0 0.00 0.00 0.00 33 1011.0
20260503220752 59 256 5.0 14.0 0.00 0.00 0.00 30 1011.1
20260503220246 59 173 4.0 12.0 0.00 0.00 0.00 30 1011.2
20260503220010 59 253 3.0 12.0 0.00 0.00 0.00 32 1011.1
20260503215234 59 333 3.0 12.0 0.00 0.00 0.00 30 1011.0
20260503214728 59 285 4.0 14.0 0.00 0.00 0.00 32 1011.1
20260503214222 60 258 4.0 14.0 0.00 0.00 0.00 30 1011.2
20260503213717 60 241 3.0 13.0 0.00 0.00 0.00 31 1011.2
20260503213440 60 351 4.0 11.0 0.00 0.00 0.00 33 1010.9
20260503212934 59 262 5.0 19.0 0.00 0.00 0.00 30 1011.0
20260503212159 60 219 6.0 19.0 0.00 0.00 0.00 31 1011.0
20260503211652 60 242 5.0 17.0 0.00 0.00 0.00 29 1010.8
20260503211146 60 244 5.0 17.0 0.00 0.00 0.00 31 1010.9
20260503210640 60 271 5.0 16.0 0.00 0.00 0.00 31 1011.1
20260503210138 60 262 5.0 18.0 0.00 0.00 0.00 33 1011.1
20260503210134 60 227 5.0 12.0 0.00 0.00 0.00 30 1011.0
20260503205134 59 286 5.0 18.0 0.00 0.00 0.00 33 1011.2
20260503204905 59 256 4.0 15.0 0.00 0.00 0.00 33 1011.2